User: anonymous   Login
Location: Oshawa
(43.9000°N, 78.8670°W)
Time: 05:35:10
(UTC-04:00)
Language:

Cosmos 1500 - Orbit

View from above orbital plane
View from above orbital plane
View from above satellite
View from above satellite

Ground track
Ground track

The orbit data is extracted from the following two-line orbital elements,

1 14372U 83099A   16149.08994128  .00001087  00000-0  53840-4 0  9998
2 14372  82.5153   3.8909 0015596 349.9978 175.2600 15.16609258779419
Epoch (UTC): 28 May 2016 02:09:30
Eccentricity: 0.0015596
inclination: 82.5153°
perigee height: 505 km
apogee height: 527 km
right ascension of ascending node: 3.8909°
argument of perigee: 349.9978°
revolutions per day: 15.16609258
mean anomaly at epoch: 175.2600°
orbit number at epoch: 77941

The dashed part of the orbit path shows where the satellite is in the earth's shadow,  

DLR